[[{"header":{"parameterUnit":"m.s-1","parameterCategory":1,"la1":30.2992,"la2":30.254,"lo1":-89.0895,"lo2":-89.0443,"dy":0.0025,"dx":0.0025,"nx":19,"ny":19,"refTime":"2026-04-16T09:00:00:Z","depth":0,"parameterNumber":2,"parameterNumberName":"U-component_of_WINDS"},"data":[0,0,0,-0.2818,-0.2819,-0.2873,-0.2873,-0.2936,-0.2936,0,0,0,0,0,0,0,0,0,0,0,-0.2798,-0.2798,-0.2818,-0.282,-0.2873,-0.2873,-0.2935,-0.2936,0,0,0,0,0,0,0,0,0,0,0,-0.2798,-0.2798,-0.2799,-0.282,-0.2873,-0.2873,-0.2935,-0.2897,0,0,0,0,0,0,0,0,0,0,-0.2847,-0.2824,-0.2798,-0.2799,-0.282,-0.2873,-0.2873,-0.2896,-0.29,-0.2909,0,-0.2914,0,-0.2926,-0.294,-0.294,0,0,0,-0.2823,-0.282,-0.2838,-0.2799,-0.282,-0.2872,-0.285,-0.2898,-0.2903,-0.2914,-0.2915,-0.2918,-0.2927,-0.294,-0.294,-0.2977,-0.2977,0,0,-0.282,-0.2806,-0.2835,-0.2841,-0.2831,-0.2848,-0.2851,-0.2901,-0.2902,-0.2916,-0.292,-0.2928,-0.2941,-0.2941,-0.2977,-0.2977,0,0,0,-0.2809,-0.2804,-0.2821,-0.2838,-0.2848,-0.2849,-0.2853,-0.29,-0.2906,-0.292,-0.2929,-0.2941,-0.2942,-0.2977,-0.2977,-0.2963,0,0,0,-0.2808,-0.2797,-0.2819,-0.2811,-0.2847,-0.2874,-0.2851,-0.2903,-0.2909,-0.2929,-0.2941,-0.2942,-0.2977,-0.2977,-0.2964,-0.2959,0,0,0,-0.2796,-0.2796,-0.2802,-0.281,-0.2832,-0.2874,-0.2884,-0.2905,-0.2914,-0.294,-0.2942,-0.2978,-0.2977,-0.2964,-0.296,-0.2964,0,0,0,-0.278,-0.2789,-0.2801,-0.2815,-0.2832,-0.2864,-0.2883,-0.2909,-0.2929,-0.2941,-0.2977,-0.2977,-0.2964,-0.296,-0.2965,-0.2966,-0.2965,0,0,-0.2783,-0.2789,-0.2798,-0.281,-0.2837,-0.2857,-0.2882,-0.2915,-0.2932,-0.2962,-0.2963,-0.2963,-0.296,-0.2965,-0.2964,-0.2963,0,0,0,-0.2794,-0.28,-0.281,-0.2828,-0.2853,-0.2874,-0.2905,-0.2917,-0.2943,-0.2944,-0.2967,-0.2965,-0.2969,-0.297,-0.2969,-0.2973,-0.2977,-0.2977,-0.2977,-0.2777,-0.2797,-0.2813,-0.2839,-0.2856,-0.2888,-0.2904,-0.2926,-0.2942,-0.2947,-0.2956,-0.2953,-0.2954,-0.2954,-0.2958,-0.2958,-0.2958,-0.2958,-0.2958,-0.2784,-0.2796,-0.2815,-0.2838,-0.2859,-0.2878,-0.2909,-0.2919,-0.2941,-0.2948,-0.2952,-0.2958,-0.2952,-0.2956,-0.2957,-0.2957,-0.2957,-0.2957,-0.2957,-0.2775,-0.2784,-0.2798,-0.2827,-0.2846,-0.2873,-0.2893,-0.2912,-0.293,-0.2934,-0.2946,-0.2946,-0.2949,-0.2938,-0.2938,-0.2938,-0.2938,-0.2938,-0.2938,-0.2761,-0.2777,-0.2791,-0.2818,-0.2832,-0.2853,-0.2885,-0.29,-0.2921,-0.2933,-0.2934,-0.2949,-0.2947,-0.2947,-0.2938,-0.2938,-0.2938,-0.2938,-0.2938,-0.276,-0.2763,-0.2785,-0.2799,-0.2832,-0.285,-0.2874,-0.2903,-0.2918,-0.2927,-0.2942,-0.2937,-0.2945,-0.2946,-0.2945,-0.2937,-0.2937,-0.2937,-0.2937,-0.2753,-0.2759,-0.2785,-0.2806,-0.2829,-0.2852,-0.2877,-0.2902,-0.2928,-0.2939,-0.2943,-0.2944,-0.2944,-0.2952,-0.2952,-0.2953,-0.2946,-0.2946,-0.2946,-0.2754,-0.2762,-0.2779,-0.2804,-0.2831,-0.2854,-0.2878,-0.2903,-0.2934,-0.2947,-0.2948,-0.2948,-0.295,-0.2949,-0.2962,-0.2963,-0.2963,0,0]},{"header":{"parameterUnit":"m.s-1","parameterCategory":1,"la1":30.2992,"la2":30.254,"lo1":-89.0895,"lo2":-89.0443,"dy":0.0025,"dx":0.0025,"nx":19,"ny":19,"refTime":"2026-04-16T09:00:00:Z","depth":0,"parameterNumber":3,"parameterNumberName":"V-component_of_WINDS"},"data":[0,0,0,2.7109,2.7108,2.7048,2.7048,2.6984,2.6983,0,0,0,0,0,0,0,0,0,0,0,2.7135,2.7135,2.7109,2.7107,2.7048,2.7048,2.6984,2.6983,0,0,0,0,0,0,0,0,0,0,0,2.7135,2.7135,2.7135,2.7107,2.7048,2.7048,2.6984,2.7024,0,0,0,0,0,0,0,0,0,0,2.708,2.7112,2.7135,2.7135,2.7107,2.7048,2.7048,2.7026,2.7022,2.7016,0,2.7015,0,2.6999,2.698,2.698,0,0,0,2.71,2.7116,2.7093,2.7135,2.7107,2.7048,2.7073,2.7023,2.7019,2.7011,2.7014,2.7012,2.6998,2.698,2.6979,2.6978,2.6978,0,0,2.7104,2.7128,2.7096,2.709,2.7102,2.7075,2.7071,2.702,2.7025,2.7014,2.701,2.6997,2.6979,2.6979,2.6978,2.6978,0,0,0,2.7118,2.7131,2.7108,2.7093,2.7082,2.7073,2.7069,2.7027,2.7018,2.7009,2.6996,2.6979,2.6978,2.6977,2.6978,2.7018,0,0,0,2.7119,2.7139,2.711,2.7124,2.7083,2.7054,2.7077,2.7021,2.7015,2.6996,2.6979,2.6978,2.6977,2.6978,2.7016,2.7032,0,0,0,2.7136,2.7141,2.7135,2.7126,2.7101,2.7054,2.7042,2.7019,2.7007,2.698,2.6978,2.6977,2.6977,2.7015,2.7029,2.7039,0,0,0,2.7159,2.717,2.7137,2.7144,2.7102,2.7081,2.7042,2.7024,2.7005,2.6979,2.6977,2.6978,2.7014,2.7027,2.7037,2.7051,2.7059,0,0,2.7187,2.7175,2.7177,2.7145,2.7136,2.7088,2.7084,2.7043,2.7017,2.6992,2.6992,2.7017,2.7029,2.7039,2.71,2.7107,0,0,0,2.7194,2.7196,2.7188,2.7173,2.7144,2.712,2.7078,2.7063,2.7041,2.701,2.7023,2.7029,2.7034,2.7039,2.7045,2.7047,2.6982,2.6982,2.6982,2.7265,2.7235,2.7237,2.7199,2.7186,2.7143,2.7129,2.7101,2.7071,2.7076,2.7067,2.7109,2.7116,2.712,2.7123,2.7073,2.7073,2.7073,2.7074,2.7302,2.7299,2.7264,2.7253,2.7221,2.7211,2.7171,2.7152,2.7137,2.7112,2.7114,2.7088,2.7129,2.7129,2.7076,2.7076,2.7075,2.7075,2.7075,2.7343,2.7337,2.7321,2.7298,2.7284,2.7246,2.7235,2.7205,2.7176,2.7179,2.7167,2.7166,2.7161,2.7176,2.7176,2.7176,2.7176,2.7176,2.7177,2.7392,2.7373,2.7368,2.7342,2.7329,2.7309,2.727,2.7256,2.7233,2.7212,2.7212,2.7182,2.714,2.7129,2.7179,2.7178,2.7178,2.7178,2.7178,2.7437,2.7423,2.7416,2.7404,2.7371,2.7359,2.7323,2.7299,2.7284,2.7279,2.725,2.7224,2.7208,2.7203,2.7194,2.7258,2.7258,2.7258,2.7258,2.7471,2.7462,2.7449,2.7432,2.7413,2.738,2.7373,2.7343,2.7309,2.7298,2.7285,2.7271,2.7268,2.7254,2.7248,2.7238,2.7312,2.7312,2.7312,2.7497,2.7485,2.7484,2.7454,2.7427,2.7404,2.7396,2.7377,2.7336,2.7314,2.7289,2.7286,2.7263,2.7257,2.7231,2.7222,2.7204,0,0]}]]